Henry Tift Myers AP, Tifton,, GA

4:01 PM EST on November 13, 2019 (GMT -0500)
Myers

Weather History for KTMA - October, 2019

Change the Weather History Date:

Sunday, October 20, 2019

  Actual Average Record
Temperature  
Mean Temperature 66 °F -  
Max Temperature 74 °F 76 °F 86 °F (2018)
Min Temperature 59 °F 50 °F 48 °F (2015)
Cooling Degree Days 2    
Growing Degree Days 16 (Base 50)    
Moisture  
Dew Point 61 °F    
Average Humidity 90    
Maximum Humidity 100    
Minimum Humidity 67    
Precipitation  
Precipitation 0.00 in - - ()
Sea Level Pressure  
Sea Level Pressure 29.89 in    
Wind  
Wind Speed 7 mph ()    
Max Wind Speed 14 mph    
Max Gust Speed 20 mph    
Visibility 8.3 miles    
Events      
Averages and records for this station are not official NWS values.
T = Trace of Precipitation, MM = Missing Value Source: Averaged Metar Reports

Daily Weather History Graph

Daily Weather History Graph

Search for Another Location

Airport or City:

Astronomy

Oct. 20, 2019 Rise Set
Actual Time 7:40 AM EDT 6:56 PM EDT
Civil Twilight 7:15 AM EDT 7:21 PM EDT
Nautical Twilight 6:47 AM EDT 7:49 PM EDT
Astronomical Twilight 6:19 AM EDT 8:17 PM EDT
Moon No Moon Rise 1:52 PM EDT (10/20)
Length of Visible Light 12h 05m
Length of Day
11h 16m
Waning Gibbous, 59% of the Moon is Illuminated
Oct 20
Waning Gibbous
Oct 21
Last Quarter
Oct 27
New
Nov 4
First Quarter
Nov 12
Full

Hourly Weather History & Observations

Time (EDT) Temp. Dew Point Humidity Pressure Visibility Wind Dir Wind Speed Gust Speed Precip Events Conditions
12:15 AM 65.8 °F 64.8 °F 96% 29.70 in 4.0 mi WSW 11.5 mph 17.3 mph N/A   Overcast
12:35 AM 65.1 °F 64.2 °F 97% 29.71 in 3.0 mi West 12.7 mph 18.4 mph N/A   Overcast
12:55 AM 64.0 °F 63.0 °F 96% 29.71 in 10.0 mi West 11.5 mph 18.4 mph N/A   Overcast
1:15 AM 63.7 °F 62.6 °F 96% 29.72 in 10.0 mi WSW 13.8 mph 19.6 mph N/A   Overcast
1:35 AM 63.0 °F 61.9 °F 96% 29.72 in 5.0 mi West 12.7 mph 18.4 mph N/A   Overcast
1:55 AM 62.6 °F 61.7 °F 97% 29.72 in 4.0 mi West 6.9 mph - N/A   Overcast
2:15 AM 62.6 °F 61.7 °F 97% 29.73 in 7.0 mi West 11.5 mph - N/A   Overcast
2:35 AM 62.1 °F 60.4 °F 94% 29.74 in 10.0 mi West 12.7 mph 16.1 mph N/A   Overcast
2:55 AM 61.3 °F 60.4 °F 97% 29.74 in 3.0 mi WSW 10.4 mph 16.1 mph N/A   Overcast
3:15 AM 60.8 °F 60.1 °F 97% 29.75 in 5.0 mi West 10.4 mph 17.3 mph N/A   Overcast
3:35 AM 60.4 °F 59.9 °F 98% 29.75 in 4.0 mi West 9.2 mph - N/A   Overcast
3:55 AM 60.3 °F 59.9 °F 99% 29.76 in 2.5 mi West 9.2 mph - N/A   Overcast
4:15 AM 60.1 °F 59.5 °F 98% 29.76 in 5.0 mi West 8.1 mph - N/A   Overcast
4:35 AM 60.3 °F 59.9 °F 99% 29.76 in 3.0 mi West 6.9 mph - N/A   Overcast
4:55 AM 60.4 °F 59.7 °F 97% 29.77 in 7.0 mi West 9.2 mph - N/A   Overcast
5:15 AM 60.4 °F 59.9 °F 98% 29.79 in 3.0 mi West 8.1 mph - N/A   Overcast
5:35 AM 60.4 °F 59.9 °F 98% 29.79 in 2.5 mi West 6.9 mph - N/A   Overcast
5:55 AM 60.4 °F 59.9 °F 98% 29.80 in 4.0 mi West 8.1 mph - N/A   Overcast
6:15 AM 60.4 °F 59.4 °F 96% 29.81 in 10.0 mi WNW 8.1 mph 17.3 mph N/A   Overcast
6:35 AM 60.4 °F 59.4 °F 96% 29.82 in 10.0 mi West 9.2 mph - N/A   Overcast
6:55 AM 60.1 °F 59.0 °F 96% 29.84 in 7.0 mi West 11.5 mph 17.3 mph N/A   Overcast
7:15 AM 59.9 °F 59.0 °F 97% 29.85 in 7.0 mi West 9.2 mph - N/A   Overcast
7:35 AM 59.9 °F 59.0 °F 97% 29.86 in 10.0 mi West 8.1 mph 16.1 mph N/A   Overcast
7:55 AM 59.9 °F 58.6 °F 96% 29.88 in 10.0 mi West 9.2 mph - N/A   Overcast
8:15 AM 59.9 °F 59.0 °F 97% 29.88 in 10.0 mi West 8.1 mph - N/A   Overcast
8:35 AM 59.9 °F 59.0 °F 97% 29.90 in 5.0 mi WNW 8.1 mph - N/A   Overcast
8:55 AM 59.9 °F 59.0 °F 97% 29.91 in 2.5 mi West 9.2 mph - N/A   Overcast
9:15 AM 59.9 °F 59.2 °F 97% 29.92 in 3.0 mi WNW 4.6 mph - N/A   Overcast
9:35 AM 60.4 °F 59.5 °F 97% 29.93 in 4.0 mi West 5.8 mph - N/A   Overcast
9:55 AM 60.8 °F 59.7 °F 96% 29.93 in 7.0 mi WNW 5.8 mph - N/A   Overcast
10:15 AM 61.5 °F 59.4 °F 93% 29.94 in 10.0 mi WNW 8.1 mph - N/A   Overcast
10:35 AM 61.9 °F 59.5 °F 92% 29.94 in 10.0 mi WNW 8.1 mph - N/A   Overcast
10:55 AM 62.4 °F 59.5 °F 90% 29.94 in 10.0 mi West 8.1 mph - N/A   Overcast
11:15 AM 62.8 °F 59.7 °F 90% 29.95 in 10.0 mi WNW 5.8 mph - N/A   Overcast
11:35 AM 63.3 °F 59.9 °F 89% 29.95 in 10.0 mi WNW 5.8 mph - N/A   Overcast
11:55 AM 64.4 °F 60.1 °F 86% 29.95 in 10.0 mi NW 6.9 mph - N/A   Overcast
12:15 PM 64.4 °F 60.1 °F 86% 29.95 in 10.0 mi West 5.8 mph - N/A   Overcast
12:35 PM 65.1 °F 60.1 °F 84% 29.96 in 10.0 mi NW 4.6 mph - N/A   Overcast
12:55 PM 66.2 °F 60.6 °F 82% 29.96 in 10.0 mi NW 5.8 mph - N/A   Overcast
1:15 PM 67.1 °F 60.8 °F 80% 29.95 in 10.0 mi NW 3.5 mph - N/A   Overcast
1:35 PM 67.5 °F 61.0 °F 80% 29.95 in 10.0 mi West 4.6 mph - N/A   Overcast
1:55 PM 67.8 °F 61.0 °F 79% 29.95 in 10.0 mi West 4.6 mph - N/A   Overcast
2:15 PM 69.3 °F 61.5 °F 76% 29.94 in 10.0 mi WNW 5.8 mph - N/A   Overcast
2:35 PM 70.0 °F 61.3 °F 74% 29.94 in 10.0 mi WNW 6.9 mph - N/A   Overcast
2:55 PM 69.8 °F 61.5 °F 75% 29.93 in 10.0 mi North 3.5 mph - N/A   Overcast
3:15 PM 71.1 °F 62.1 °F 73% 29.93 in 10.0 mi NNW 4.6 mph - N/A   Mostly Cloudy
3:35 PM 71.2 °F 62.1 °F 73% 29.93 in 10.0 mi WNW 5.8 mph - N/A   Scattered Clouds
3:55 PM 72.0 °F 62.1 °F 71% 29.92 in 10.0 mi WNW 3.5 mph - N/A   Scattered Clouds
4:15 PM 72.1 °F 62.4 °F 71% 29.93 in 10.0 mi WNW 3.5 mph - N/A   Clear
4:35 PM 73.9 °F 62.6 °F 68% 29.93 in 10.0 mi SW 4.6 mph - N/A   Mostly Cloudy
4:55 PM 74.3 °F 62.8 °F 67% 29.92 in 10.0 mi WNW 3.5 mph - N/A   Scattered Clouds
5:15 PM 74.3 °F 63.1 °F 68% 29.92 in 10.0 mi NW 4.6 mph - N/A   Clear
5:35 PM 74.8 °F 63.5 °F 68% 29.93 in 10.0 mi WSW 3.5 mph - N/A   Clear
5:55 PM 74.1 °F 63.3 °F 69% 29.92 in 10.0 mi Calm Calm - N/A   Clear
6:15 PM 73.8 °F 63.1 °F 69% 29.92 in 10.0 mi Calm Calm - N/A   Clear
6:35 PM 73.4 °F 63.7 °F 71% 29.93 in 10.0 mi Calm Calm - N/A   Clear
6:55 PM 70.5 °F 65.7 °F 85% 29.93 in 10.0 mi Calm Calm - N/A   Clear
7:15 PM 67.8 °F 65.3 °F 92% 29.93 in 10.0 mi Calm Calm - N/A   Clear
7:35 PM 67.1 °F 64.9 °F 93% 29.94 in 10.0 mi Calm Calm - N/A   Clear
7:55 PM 65.3 °F 64.4 °F 97% 29.94 in 10.0 mi Calm Calm - N/A   Clear
8:20 PM 65.1 °F 64.4 °F 98% 29.95 in 10.0 mi Calm Calm - N/A   Clear
8:35 PM 64.6 °F 63.9 °F 98% 29.96 in 10.0 mi Calm Calm - N/A   Clear
8:55 PM 63.7 °F 63.5 °F 99% 29.96 in 10.0 mi Calm Calm - N/A   Clear
9:15 PM 64.0 °F 63.5 °F 98% 29.96 in 10.0 mi Calm Calm - N/A   Clear
9:35 PM 63.3 °F 62.8 °F 98% 29.97 in 10.0 mi Calm Calm - N/A   Clear
9:55 PM 62.6 °F 62.4 °F 99% 29.97 in 10.0 mi Calm Calm - N/A   Clear
10:15 PM 61.9 °F 61.7 °F 99% 29.98 in 10.0 mi Calm Calm - N/A   Clear
10:35 PM 62.1 °F 62.1 °F 100% 29.98 in 10.0 mi Calm Calm - N/A   Clear
10:55 PM 61.3 °F 61.3 °F 100% 29.99 in 10.0 mi Calm Calm - N/A   Clear
11:15 PM 61.7 °F 61.7 °F 100% 29.99 in 10.0 mi Calm Calm - N/A   Clear
11:35 PM 61.0 °F 61.0 °F 100% 29.99 in 7.0 mi Calm Calm - N/A   Clear
11:55 PM 60.8 °F 60.6 °F 99% 29.99 in 10.0 mi Calm Calm - N/A   Clear